PERSEUS-M2

Last updated on Sun Dec 14 2025 00:03:49 GMT+0000 (Coordinated Universal Time)

1 40037U 14033AD 25347.28181694 .00003453 00000+0 32338-3 0 9991 2 40037 97.9758 289.4024 0011365 188.3344 171.7688 14.94704456623000
UTC large
Height (km)
Speed (km/s)
/
Latitude / Longitude
Inclination (degrees)
Orbital Period (minutes)
Azimuth
Elevation
Range (km)
Doppler Factor

Next 0 passes for location: London (51.5072 / 0.1276)

Sorry there are no passes over London.